User: anonymous   Login
Location: Unspecified
(0.0000°N, 0.0000°E)
Time: 17:19:36
(UTC+02:00)
Language:

ARIANE DEB (SPELDA) - Orbit

View from above orbital plane
View from above orbital plane
View from above satellite
View from above satellite

Ground track
Ground track

The orbit data is extracted from the following two-line orbital elements,

1 27402U 02015D   15242.66874209  .00002927  00000-0  24075-2 0  9999
2 27402 003.6762 052.9450 7102356 098.3091 270.2858 02.47489754117742
Epoch (UTC): 30 August 2015 16:02:59
Eccentricity: 0.7102356
inclination: 3.6762°
perigee height: 311 km
apogee height: 33105 km
right ascension of ascending node: 52.9450°
argument of perigee: 98.3091°
revolutions per day: 2.47489754
mean anomaly at epoch: 270.2858°
orbit number at epoch: 11774

The dashed part of the orbit path shows where the satellite is in the earth's shadow,  

DLR